GW0776 Weather Reports


time (UTC)temp
C
wind
direction
speed
KPH
gust
KPH
rain 1hr
cm
rain 24hr
cm
rain mn
cm
humidity
%
barometer
mb
20260510095011 22 166 0.0 1.6 0.00 0.00 0.00 95 1011.7
20260510094511 22 166 0.0 0.0 0.00 0.00 0.00 95 1011.7
20260510094011 22 166 0.0 0.0 0.00 0.00 0.00 95 1011.8
20260510093511 22 162 0.0 0.0 0.00 0.00 0.00 95 1011.7
20260510093011 22 162 0.0 0.0 0.00 0.00 0.00 95 1011.6
20260510092511 22 162 0.0 0.0 0.00 0.00 0.00 95 1011.5
20260510092011 22 162 0.0 0.0 0.00 0.00 0.00 95 1011.4
20260510091511 22 213 0.0 0.0 0.00 0.00 0.00 94 1011.4
20260510091011 22 213 0.0 0.0 0.00 0.00 0.00 94 1011.5
20260510090011 22 213 0.0 0.0 0.00 0.00 0.00 94 1011.4
20260510085511 22 213 0.0 0.0 0.00 0.00 0.00 94 1011.5
20260510085011 22 213 0.0 0.0 0.00 0.00 0.00 94 1011.5
20260510084511 22 213 0.0 0.0 0.00 0.00 0.00 94 1011.5
20260510084011 22 213 0.0 0.0 0.00 0.00 0.00 94 1011.5
20260510083511 22 213 0.0 0.0 0.00 0.00 0.00 94 1011.6
20260510083011 22 213 0.0 0.0 0.00 0.00 0.00 94 1011.6
20260510082511 22 213 0.0 0.0 0.00 0.00 0.00 94 1011.5
20260510081510 22 74 0.0 0.0 0.00 0.00 0.00 94 1011.5
20260510081010 22 74 0.0 1.6 0.00 0.00 0.00 94 1011.5
20260510080511 22 74 0.0 1.6 0.00 0.00 0.00 94 1011.6
20260510080011 22 74 0.0 0.0 0.00 0.00 0.00 94 1011.5
20260510075511 22 74 0.0 0.0 0.00 0.00 0.00 94 1011.5
20260510075010 22 74 0.0 0.0 0.00 0.00 0.00 94 1011.6
20260510074510 22 74 0.0 0.0 0.00 0.00 0.00 94 1011.6
20260510074010 22 74 0.0 0.0 0.00 0.00 0.00 93 1011.6
20260510073511 22 74 0.0 0.0 0.00 0.00 0.00 93 1011.7
20260510073010 22 74 0.0 0.0 0.00 0.00 0.00 93 1011.7
20260510072010 22 74 0.0 0.0 0.00 0.00 0.00 93 1011.7
20260510071511 22 74 0.0 0.0 0.00 0.00 0.00 93 1011.8
20260510071010 22 74 0.0 0.0 0.00 0.00 0.00 93 1011.8
20260510070510 23 74 0.0 0.0 0.00 0.00 0.00 93 1011.9
20260510070010 23 74 0.0 0.0 0.00 0.00 0.00 93 1011.8
20260510065510 23 74 0.0 0.0 0.00 0.00 0.00 93 1011.8
20260510065011 23 74 0.0 0.0 0.00 0.00 0.00 92 1011.7
20260510064511 23 74 0.0 1.6 0.00 0.00 0.00 92 1011.7
20260510064011 23 74 0.0 1.6 0.00 0.00 0.00 92 1011.8
20260510063510 23 177 0.0 0.0 0.00 0.00 0.00 92 1011.9
20260510062510 23 177 0.0 0.0 0.00 0.00 0.00 92 1011.9
20260510062010 23 177 0.0 0.0 0.00 0.00 0.00 92 1012.0
20260510061510 23 177 0.0 0.0 0.00 0.00 0.00 91 1012.0
20260510061011 23 177 0.0 0.0 0.00 0.00 0.00 91 1011.9
20260510060010 23 177 0.0 0.0 0.00 0.00 0.00 91 1012.0
20260510055010 23 177 0.0 1.6 0.00 0.00 0.00 91 1012.0
20260510054510 23 158 0.0 3.2 0.00 0.00 0.00 91 1011.9
20260510054010 23 158 0.0 3.2 0.00 0.00 0.00 91 1012.0
20260510053510 23 109 0.0 1.6 0.00 0.00 0.00 90 1012.0
20260510053010 23 103 0.0 1.6 0.00 0.00 0.00 90 1011.8
20260510052510 23 103 0.0 9.7 0.00 0.00 0.00 90 1012.0
20260510052010 23 103 0.0 11.3 0.00 0.00 0.00 90 1012.1
20260510051510 23 129 0.0 11.3 0.00 0.00 0.00 90 1012.1
20260510050510 23 104 0.0 3.2 0.00 0.00 0.00 89 1012.2
20260510050010 23 139 1.6 4.8 0.00 0.00 0.00 89 1012.1
20260510045510 23 141 0.0 6.4 0.00 0.00 0.00 88 1011.9
20260510045010 23 163 0.0 8.0 0.00 0.00 0.00 87 1012.2
20260510044510 23 125 0.0 8.0 0.00 0.00 0.00 86 1012.2
20260510043510 23 81 3.2 6.4 0.00 0.00 0.00 85 1012.4
20260510042510 23 140 3.2 9.7 0.00 0.00 0.00 85 1012.5
20260510041511 23 136 1.6 9.7 0.00 0.00 0.00 84 1012.5
20260510041011 23 146 3.2 9.7 0.00 0.00 0.00 83 1012.4
20260510040511 23 108 1.6 9.7 0.00 0.00 0.00 83 1012.5
20260510040011 23 78 4.8 9.7 0.00 0.00 0.00 83 1012.4
20260510035511 23 109 0.0 4.8 0.00 0.00 0.00 83 1012.4
20260510034511 23 143 3.2 6.4 0.00 0.00 0.00 82 1012.5
20260510034011 23 156 0.0 14.5 0.00 0.00 0.00 81 1012.3
20260510033511 23 170 1.6 14.5 0.00 0.00 0.00 80 1012.4
20260510033011 24 104 1.6 11.3 0.00 0.00 0.00 79 1012.4
20260510032011 24 132 4.8 8.0 0.00 0.00 0.00 77 1012.2
20260510031511 24 180 3.2 9.7 0.00 0.00 0.00 77 1012.4
20260510031011 24 90 3.2 12.9 0.00 0.00 0.00 76 1012.7
20260510030511 24 149 6.4 16.1 0.00 0.00 0.00 76 1012.9
20260510025511 24 42 0.0 19.3 0.00 0.00 0.00 75 1012.7
20260510025011 25 42 4.8 19.3 0.00 0.00 0.00 75 1012.6
20260510024511 25 140 11.3 19.3 0.00 0.00 0.00 75 1012.2
20260510024011 25 170 3.2 24.1 0.00 0.00 0.00 76 1012.2
20260510023511 26 122 17.7 24.1 0.00 0.00 0.00 79 1012.0
20260510022511 26 139 4.8 27.4 0.00 0.00 0.00 84 1011.7
20260510022011 26 113 9.7 11.3 0.00 0.00 0.00 81 1011.4
20260510021511 26 136 0.0 9.7 0.00 0.00 0.00 80 1011.2
20260510021011 26 148 3.2 4.8 0.00 0.00 0.00 79 1011.0
20260510020011 26 140 0.0 6.4 0.00 0.00 0.00 77 1010.5
20260510015011 26 99 1.6 9.7 0.00 0.00 0.00 75 1009.9
20260510014510 26 131 4.8 3.2 0.00 0.00 0.00 74 1009.7
20260510013510 26 150 0.0 6.4 0.00 0.00 0.00 73 1009.8
20260510013010 27 156 1.6 3.2 0.00 0.00 0.00 72 1009.6
20260510012511 27 214 0.0 1.6 0.00 0.00 0.00 71 1009.5
20260510012011 27 214 0.0 3.2 0.00 0.00 0.00 70 1009.6
20260510011511 28 251 1.6 6.4 0.00 0.00 0.00 70 1009.5
20260510011011 28 300 0.0 12.9 0.00 0.00 0.00 68 1009.6
20260510010510 28 217 1.6 12.9 0.00 0.00 0.00 66 1009.6
20260510010010 29 248 0.0 4.8 0.00 0.00 0.00 64 1009.4
20260510005510 29 192 0.0 6.4 0.00 0.00 0.00 65 1009.3
20260510005010 29 283 0.0 6.4 0.00 0.00 0.00 67 1009.1
20260510004511 30 134 1.6 6.4 0.00 0.00 0.00 67 1008.9
20260510004011 30 154 0.0 0.0 0.00 0.00 0.00 72 1009.1
20260510003511 30 129 0.0 4.8 0.00 0.00 0.00 70 1008.7
20260510003011 30 125 0.0 6.4 0.00 0.00 0.00 70 1008.8
20260510002510 30 124 0.0 6.4 0.00 0.00 0.00 69 1008.8
20260510002010 30 129 3.2 6.4 0.00 0.00 0.00 68 1008.8
20260510001510 30 120 1.6 4.8 0.00 0.00 0.00 68 1008.7
20260510000510 30 125 4.8 6.4 0.00 0.00 0.00 68 1008.8
20260510000010 30 140 0.0 0.0 0.00 0.00 0.00 68 1008.6
20260509235010 30 121 0.0 6.4 0.00 0.00 0.00 67 1008.6
20260509234010 30 112 0.0 4.8 0.00 0.00 0.00 67 1008.5
20260509233510 31 120 0.0 4.8 0.00 0.00 0.00 67 1008.5
20260509233010 30 117 0.0 4.8 0.00 0.00 0.00 67 1008.6
20260509232510 30 107 3.2 6.4 0.00 0.00 0.00 68 1008.5
20260509232010 30 138 1.6 6.4 0.00 0.00 0.00 67 1008.5
20260509231010 31 66 0.0 1.6 0.00 0.00 0.00 67 1008.6
20260509230510 31 66 0.0 0.0 0.00 0.00 0.00 66 1008.5
20260509230010 31 66 0.0 3.2 0.00 0.00 0.00 65 1008.4
20260509225510 31 67 0.0 4.8 0.00 0.00 0.00 63 1008.3
20260509225010 31 68 0.0 4.8 0.00 0.00 0.00 63 1008.4
20260509224010 31 144 1.6 4.8 0.00 0.00 0.00 65 1008.4
20260509223010 31 152 1.6 3.2 0.00 0.00 0.00 66 1008.3
20260509222510 31 152 0.0 3.2 0.00 0.00 0.00 65 1008.2
20260509222010 31 192 0.0 3.2 0.00 0.00 0.00 65 1008.2
20260509221510 31 192 1.6 6.4 0.00 0.00 0.00 65 1008.2
20260509215511 31 183 1.6 4.8 0.00 0.00 0.00 64 1008.2
20260509215011 31 71 3.2 4.8 0.00 0.00 0.00 63 1008.3
20260509214511 32 70 1.6 4.8 0.00 0.00 0.00 64 1008.4
20260509214011 32 23 1.6 4.8 0.00 0.00 0.00 64 1008.3
20260509213511 32 328 0.0 6.4 0.00 0.00 0.00 64 1008.3
20260509212511 31 71 3.2 6.4 0.00 0.00 0.00 66 1008.4
20260509212011 31 89 1.6 4.8 0.00 0.00 0.00 66 1008.5
20260509211511 31 68 1.6 6.4 0.00 0.00 0.00 65 1008.4
20260509211011 32 79 3.2 6.4 0.00 0.00 0.00 65 1008.4
20260509210511 32 102 3.2 4.8 0.00 0.00 0.00 64 1008.5
20260509210011 32 79 1.6 9.7 0.00 0.00 0.00 66 1008.5
20260509205511 32 182 3.2 11.3 0.00 0.00 0.00 66 1008.7
20260509204511 32 3 0.0 6.4 0.00 0.00 0.00 67 1008.8
20260509204011 32 348 0.0 6.4 0.00 0.00 0.00 65 1008.8
20260509203511 32 82 1.6 6.4 0.00 0.00 0.00 67 1008.9
20260509203011 32 136 1.6 3.2 0.00 0.00 0.00 67 1008.9
20260509202511 32 140 3.2 3.2 0.00 0.00 0.00 66 1009.0
20260509201011 31 144 4.8 6.4 0.00 0.00 0.00 67 1009.2
20260509200011 31 88 0.0 6.4 0.00 0.00 0.00 67 1009.4
20260509195511 31 265 1.6 6.4 0.00 0.00 0.00 69 1009.3
20260509195011 31 173 3.2 4.8 0.00 0.00 0.00 70 1009.5
20260509194511 31 71 0.0 0.0 0.00 0.00 0.00 68 1009.4
20260509194011 31 126 0.0 0.0 0.00 0.00 0.00 70 1009.4
20260509193511 30 79 0.0 0.0 0.00 0.00 0.00 69 1009.5
20260509193011 30 27 0.0 0.0 0.00 0.00 0.00 69 1009.6
20260509192511 31 192 0.0 4.8 0.00 0.00 0.00 70 1009.7
20260509192011 31 192 0.0 4.8 0.00 0.00 0.00 70 1009.7
20260509191511 31 322 0.0 6.4 0.00 0.00 0.00 70 1009.7
20260509190510 30 154 1.6 8.0 0.00 0.00 0.00 70 1009.6
20260509190010 30 151 3.2 6.4 0.00 0.00 0.00 70 1009.6
20260509185510 30 134 1.6 6.4 0.00 0.00 0.00 70 1009.7
20260509185010 30 114 1.6 6.4 0.00 0.00 0.00 70 1009.9
20260509184511 30 129 0.0 6.4 0.00 0.00 0.00 72 1010.0
20260509184011 30 192 0.0 3.2 0.00 0.00 0.00 71 1010.1
20260509183010 30 163 0.0 4.8 0.00 0.00 0.00 74 1010.2
20260509182510 30 136 1.6 8.0 0.00 0.00 0.00 74 1010.2
20260509182011 30 202 0.0 8.0 0.00 0.00 0.00 75 1010.3
20260509181510 29 181 0.0 6.4 0.00 0.00 0.00 76 1010.3
20260509181011 29 164 1.6 6.4 0.00 0.00 0.00 76 1010.5
20260509180511 29 150 4.8 4.8 0.00 0.00 0.00 76 1010.5
20260509180010 29 284 0.0 3.2 0.00 0.00 0.00 77 1010.7
20260509175510 29 296 0.0 6.4 0.00 0.00 0.00 77 1010.9
20260509175011 29 240 0.0 6.4 0.00 0.00 0.00 77 1011.2
20260509174511 29 172 0.0 6.4 0.00 0.00 0.00 78 1011.1
20260509174011 28 119 0.0 9.7 0.00 0.00 0.00 79 1011.2
20260509173510 28 118 0.0 9.7 0.00 0.00 0.00 79 1011.1
20260509173010 28 196 0.0 8.0 0.00 0.00 0.00 80 1011.1
20260509172510 28 111 1.6 11.3 0.00 0.00 0.00 80 1011.1
20260509172010 28 158 4.8 11.3 0.00 0.00 0.00 80 1010.9
20260509171511 28 183 3.2 11.3 0.00 0.00 0.00 80 1010.8
20260509171010 28 138 1.6 8.0 0.00 0.00 0.00 80 1010.6
20260509170010 27 147 3.2 6.4 0.00 0.00 0.00 82 1010.8
20260509165010 27 139 0.0 4.8 0.00 0.00 0.00 85 1010.8
20260509164510 27 153 0.0 6.4 0.00 0.00 0.00 85 1010.9
20260509164010 26 93 0.0 6.4 0.00 0.00 0.00 85 1011.0
20260509163010 26 153 0.0 8.0 0.00 0.00 0.00 86 1010.9
20260509162510 26 193 0.0 8.0 0.00 0.00 0.00 86 1011.0
20260509162010 26 163 0.0 4.8 0.00 0.00 0.00 87 1011.1
20260509161510 26 323 0.0 4.8 0.00 0.00 0.00 86 1011.1
20260509160510 26 191 0.0 4.8 0.00 0.00 0.00 87 1011.2
20260509160010 26 13 3.2 4.8 0.00 0.00 0.00 87 1011.2
20260509155510 26 217 0.0 0.0 0.00 0.00 0.00 88 1011.3
20260509155010 26 102 0.0 0.0 0.00 0.00 0.00 88 1011.4
20260509154510 26 85 0.0 0.0 0.00 0.00 0.00 89 1011.6
20260509154010 25 349 0.0 0.0 0.00 0.00 0.00 89 1011.6
20260509153511 25 349 0.0 3.2 0.00 0.00 0.00 90 1011.5
20260509153011 25 349 0.0 3.2 0.00 0.00 0.00 90 1011.6
20260509152011 25 344 0.0 3.2 0.00 0.00 0.00 91 1011.6
20260509151511 25 80 0.0 1.6 0.00 0.00 0.00 92 1011.5
20260509150511 25 38 0.0 0.0 0.00 0.00 0.00 93 1011.5
20260509150011 25 38 0.0 0.0 0.00 0.00 0.00 94 1011.4
20260509145511 25 38 0.0 0.0 0.00 0.00 0.00 94 1011.3
20260509145011 24 38 0.0 0.0 0.00 0.00 0.00 95 1011.1
20260509144511 24 13 0.0 0.0 0.00 0.00 0.00 95 1011.0
20260509143511 24 13 0.0 0.0 0.00 0.00 0.00 95 1010.9
20260509143011 24 13 0.0 0.0 0.00 0.00 0.00 95 1010.8
20260509142511 24 13 0.0 0.0 0.00 0.00 0.00 96 1010.8
20260509142011 24 13 0.0 0.0 0.00 0.00 0.00 96 1010.7
20260509141511 23 13 0.0 0.0 0.00 0.00 0.00 96 1010.6
20260509141011 23 13 0.0 0.0 0.00 0.00 0.00 96 1010.5
20260509140511 23 13 0.0 0.0 0.00 0.00 0.00 96 1010.6
20260509140011 23 13 0.0 0.0 0.00 0.00 0.00 96 1010.6
20260509135511 23 13 0.0 0.0 0.00 0.00 0.00 96 1010.6
20260509135011 23 13 0.0 0.0 0.00 0.00 0.00 96 1010.7
20260509134512 23 319 0.0 0.0 0.00 0.00 0.00 96 1010.6
20260509134011 23 310 0.0 0.0 0.00 0.00 0.00 96 1010.9
20260509133511 23 310 0.0 0.0 0.00 0.00 0.00 96 1011.1
20260509133011 23 310 0.0 0.0 0.00 0.00 0.00 97 1011.4
20260509132510 23 356 0.0 0.0 0.00 0.00 0.00 97 1011.4
20260509132011 23 132 0.0 0.0 0.00 0.00 0.00 97 1011.3
20260509131011 23 151 0.0 3.2 0.00 0.00 0.00 97 1011.2
20260509130511 23 158 0.0 3.2 0.00 0.00 0.00 97 1011.3
20260509130011 23 323 0.0 0.0 0.00 0.00 0.00 97 1011.5
20260509125510 23 323 0.0 0.0 0.00 0.00 0.00 97 1011.6
20260509125011 23 323 0.0 0.0 0.00 0.00 0.00 97 1011.7
20260509124010 23 323 0.0 0.0 0.00 0.00 0.00 96 1011.6
20260509123511 23 323 0.0 0.0 0.00 0.00 0.00 97 1011.5
20260509123011 22 323 0.0 0.0 0.00 0.00 0.00 97 1011.5
20260509122010 22 323 0.0 0.0 0.00 0.00 0.00 97 1011.2
20260509121510 22 323 0.0 0.0 0.00 0.00 0.00 97 1011.1
20260509120511 22 323 0.0 0.0 0.00 0.00 0.00 96 1010.8
20260509120011 22 323 0.0 0.0 0.00 0.00 0.00 96 1010.4
20260509115511 22 323 0.0 0.0 0.00 0.00 0.00 96 1010.1
20260509115010 22 323 0.0 0.0 0.00 0.00 0.00 96 1010.3
20260509114510 22 323 0.0 0.0 0.00 0.00 0.00 96 1010.6
20260509114010 22 323 0.0 0.0 0.00 0.00 0.00 96 1010.7
20260509113510 22 323 0.0 0.0 0.00 0.00 0.00 96 1010.7
20260509113010 22 325 0.0 0.0 0.00 0.00 0.00 96 1010.9
20260509112510 22 325 0.0 0.0 0.00 0.00 0.00 96 1010.9
20260509112010 22 325 0.0 0.0 0.00 0.00 0.00 96 1010.9
20260509111510 22 325 0.0 0.0 0.00 0.00 0.00 96 1010.9
20260509111010 22 325 0.0 0.0 0.00 0.00 0.00 96 1011.1
20260509110510 22 325 0.0 0.0 0.00 0.00 0.00 96 1011.2
20260509110010 22 325 0.0 0.0 0.00 0.00 0.00 96 1011.2
20260509105510 22 325 0.0 0.0 0.00 0.00 0.00 96 1011.1
20260509105010 22 325 0.0 0.0 0.00 0.00 0.00 96 1011.0
20260509104010 22 325 0.0 4.8 0.00 0.00 0.00 96 1011.0
20260509103511 22 329 0.0 6.4 0.00 0.00 0.00 96 1011.1
20260509103010 22 317 1.6 6.4 0.00 0.00 0.00 96 1011.0
20260509102510 22 319 3.2 6.4 0.00 0.00 0.00 96 1010.9
20260509102010 22 344 0.0 0.0 0.00 0.00 0.00 96 1010.6
20260509101510 22 344 0.0 0.0 0.00 0.00 0.00 96 1010.2
20260509100510 22 344 0.0 0.0 0.00 0.00 0.00 96 1009.9